Hourly Data Report for October 13, 2016

All times are specified in Local Standard Time (LST). Add 1 hour to adjust for Daylight Saving Time where and when it is observed.

QIKIQTARJUAQ A
NUNAVUT

67°32'48.000" N
64°01'54.000" W
5.50 m
2400577
YVM

Download Data

Hourly Data (October 2016)
Hourly Data Report for October 13, 2016
Temp Definition
°C
Dew Point Temp Definition
°C
Rel Hum Definition
%
Wind Dir Definition
10's deg

Wind Spd Definition
km/h
Visibility Definition
km
Stn Press Definition
kPa
Hmdx Definition


Wind Chill Definition


Weather Definition


TIME
00:00 Legend Double Dagger -4.1 -5.1 93 19 15 16.1 101.37   -9 LegendNANA
01:00 Legend Double Dagger -5.5 -7.2 88 19 4 16.1 101.34   -7 LegendNANA
02:00 Legend Double Dagger -5.9 -8.0 85 14 4 16.1 101.32   -8 LegendNANA
03:00 Legend Double Dagger -6.9 -8.7 87 15 9 16.1 101.27   -11 LegendNANA
04:00 Legend Double Dagger -5.3 -7.3 86 20 15 16.1 101.23   -11 LegendNANA
05:00 Legend Double Dagger -6.6 -8.6 86 15 5 16.1 101.19   -9 LegendNANA
06:00 Legend Double Dagger -6.4 -8.6 84 16 8 16.1 101.15   -10 LegendNANA
07:00 Legend Double Dagger -6.4 -8.3 86 16 8 16.1 101.10   -10 LegendNANA
08:00 Legend Double Dagger -6.0 -8.0 86 16 5 16.1 101.06   -8 LegendNANA
09:00 Legend Double Dagger -5.7 -7.5 87 11 4 16.1 101.00   -8 LegendNANA
10:00 Legend Double Dagger -4.0 -6.6 82 19 8 16.1 100.93   -7 LegendNANA
11:00 Legend Double Dagger -4.1 -6.5 84 12 4 16.1 100.89   -6 LegendNANA
12:00 Legend Double Dagger -3.4 -6.0 82 10 4 16.1 100.87   -5 LegendNANA
13:00 Legend Double Dagger -3.3 -5.2 87 18 4 16.1 100.86   -5 LegendNANA
14:00 Legend Double Dagger -3.5 -4.6 92 20 11 16.1 100.85   -8 Snow
15:00 Legend Double Dagger -3.8 -5.2 90 19 11 16.1 100.86   -8 Snow
16:00 Legend Double Dagger -5.0 -6.3 91 18 8 16.1 100.86   -9 Snow
17:00 Legend Double Dagger -3.0 -5.3 84 18 9 16.1 100.85   -7 LegendNANA
18:00 Legend Double Dagger -5.1 -6.7 88 13 5 16.1 100.84   -7 LegendNANA
19:00 Legend Double Dagger -4.5 -6.1 89 LegendMM 4 16.1 100.82   -6 Snow
20:00 Legend Double Dagger -5.2 -6.4 92 16 5 16.1 100.83   -7 LegendNANA
21:00 Legend Double Dagger -5.3 -6.8 89 15 4 16.1 100.80   -7 LegendNANA
22:00 Legend Double Dagger -5.8 -7.4 89 13 5 16.1 100.78   -8 LegendNANA
23:00 Legend Double Dagger -4.6 -6.1 89 16 4 16.1 100.78   -6 LegendNANA

Notes on Data Quality.

Legend

  • E = Estimated
  • M = Missing
  • NA = Not Available
  • ‡ = Partner data that is not subject to review by the National Climate Archives
Date modified: